Orlando International, FL

11:49 AM EDT on June 26, 2017 (GMT -0400)
Orlando International

Weather History for KMCO - April, 2014

Change the Weather History Date:

Friday, April 25, 2014

  Actual Average Record
Temperature  
Mean Temperature 78 °F 73 °F  
Max Temperature 88 °F 84 °F 97 °F (1908)
Min Temperature 67 °F 62 °F 44 °F (2012)
Degree Days  
Heating Degree Days 0 0  
Month to date heating degree days 0 11  
Since 1 July heating degree days 406 569  
Cooling Degree Days 13 8  
Month to date cooling degree days 188 157  
Year to date cooling degree days 445 379  
Growing Degree Days 27 (Base 50)    
Moisture  
Dew Point 62 °F    
Average Humidity 65    
Maximum Humidity 90    
Minimum Humidity 39    
Precipitation  
Precipitation 0.00 in 0.08 in 2.74 in (1918)
Month to date precipitation 2.35 2.32  
Year to date precipitation 11.91 10.82  
Sea Level Pressure  
Sea Level Pressure 29.97 in    
Wind  
Wind Speed 8 mph (WNW)    
Max Wind Speed 17 mph    
Max Gust Speed 28 mph    
Visibility 10 miles    
Events      
T = Trace of Precipitation, MM = Missing Value Source: NWS Daily Summary

Daily Weather History Graph

Daily Weather History Graph

Search for Another Location

Airport or City:

Trip Planner

Search our weather history database for the weather conditions in past years. The results will help you decide how hot, cold, wet, or windy it might be!

Date:

Astronomy

Apr. 25, 2014 Rise Set
Actual Time 6:50 AM EDT 7:56 PM EDT
Civil Twilight 6:25 AM EDT 8:21 PM EDT
Nautical Twilight 5:56 AM EDT 8:50 PM EDT
Astronomical Twilight 5:26 AM EDT 9:20 PM EDT
Moon 4:17 AM EDT (4/25) 4:35 PM EDT (4/25)
Length of Visible Light 13h 55m
Length of Day
13h 06m
Waning Crescent, 15% of the Moon is Illuminated
Apr 25
Waning Crescent
Apr 29
New
May 6
First Quarter
May 14
Full
May 21
Last Quarter

Hourly Weather History & Observations

Time (EDT) Temp. Heat Index Dew Point Humidity Pressure Visibility Wind Dir Wind Speed Gust Speed Precip Events Conditions
12:53 AM 72.0 °F - 64.9 °F 78% 29.96 in 10.0 mi Calm Calm - N/A   Clear
1:53 AM 71.1 °F - 64.0 °F 78% 29.95 in 10.0 mi West 8.1 mph - N/A   Clear
2:53 AM 71.1 °F - 62.1 °F 73% 29.94 in 10.0 mi NW 4.6 mph - N/A   Clear
3:53 AM 70.0 °F - 63.0 °F 78% 29.94 in 10.0 mi WNW 4.6 mph - N/A   Clear
4:53 AM 69.1 °F - 64.0 °F 84% 29.95 in 10.0 mi WNW 4.6 mph - N/A   Clear
5:53 AM 69.1 °F - 64.9 °F 87% 29.96 in 10.0 mi NNW 6.9 mph - N/A   Clear
6:53 AM 69.1 °F - 64.9 °F 87% 29.99 in 9.0 mi SSW 5.8 mph - N/A   Scattered Clouds
7:53 AM 69.1 °F - 66.0 °F 90% 30.02 in 6.0 mi SSW 3.5 mph - N/A   Mostly Cloudy
8:53 AM 71.1 °F - 66.0 °F 84% 30.02 in 8.0 mi NW 3.5 mph - N/A   Mostly Cloudy
9:53 AM 75.9 °F - 63.0 °F 64% 30.03 in 10.0 mi NNW 8.1 mph - N/A   Scattered Clouds
10:53 AM 79.0 °F - 61.0 °F 54% 30.03 in 10.0 mi WNW 10.4 mph - N/A   Scattered Clouds
11:53 AM 81.0 °F 81.7 °F 61.0 °F 50% 30.01 in 10.0 mi NW 6.9 mph - N/A   Scattered Clouds
12:53 PM 84.0 °F 83.5 °F 57.9 °F 41% 29.99 in 10.0 mi West 9.2 mph - N/A   Scattered Clouds
1:53 PM 84.0 °F 83.8 °F 59.0 °F 43% 29.97 in 10.0 mi West 8.1 mph 17.3 mph N/A   Partly Cloudy
2:53 PM 86.0 °F 85.7 °F 60.1 °F 41% 29.96 in 10.0 mi Variable 6.9 mph - N/A   Partly Cloudy
3:53 PM 84.0 °F 84.0 °F 60.1 °F 44% 29.94 in 10.0 mi West 11.5 mph - N/A   Scattered Clouds
4:53 PM 87.1 °F 86.5 °F 59.0 °F 39% 29.93 in 10.0 mi West 12.7 mph - N/A   Scattered Clouds
5:53 PM 87.1 °F 86.7 °F 60.1 °F 40% 29.93 in 10.0 mi NW 13.8 mph 19.6 mph N/A   Scattered Clouds
6:53 PM 84.9 °F 84.2 °F 57.9 °F 40% 29.94 in 10.0 mi WNW 11.5 mph - N/A   Partly Cloudy
7:53 PM 81.0 °F 81.1 °F 57.9 °F 45% 29.95 in 10.0 mi West 8.1 mph - N/A   Clear
8:53 PM 78.1 °F - 62.1 °F 58% 29.97 in 10.0 mi West 8.1 mph - N/A   Clear
9:53 PM 77.0 °F - 64.0 °F 64% 29.99 in 10.0 mi West 8.1 mph - N/A   Clear
10:53 PM 73.9 °F - 64.0 °F 71% 30.00 in 10.0 mi West 6.9 mph - N/A   Clear
11:53 PM 72.0 °F - 64.9 °F 78% 29.99 in 10.0 mi WSW 6.9 mph - N/A   Clear